DECAYED

RESURS P1 DEB, 60217 (Decayed)

Orbit data source: Space-Track

RESURS P1 DEB, 60217 was space debris in LEO originally from a Commonwealth of Independent States-origin launch on Tue, 25 Jun 2013 UTC launched from the Tyuratam Missile And Space Complex (TTMTR). Debris objects in space refer to the collection of defunct objects orbiting the Earth. Examples of debris include non-operational satellites, rocket bodies, and fragments generated from explosions, collisions, or faulty payload assembly.

Not visible in the next 10 days
RESURS P1 DEB details
Identifier
60217, 2013-030F
Orbit
Decayed
Last TLE update4 months ago
Origin
Flag of CISTSSKBP? (CIS)
ManufacturerTSSKBP?
MissionDecayed spacecraft
Bus & MotorUnknown
MassUnknown
Launch date (UTC)
2013-06-25 (11 years ago)
Launch vehicleUnknown
Launch site
Tyuratam Missile And Space Complex (TTMTR)
Object type
Payload
Rocket body
Debris
Shape & HBRUnknown
Radar Cross SectionMedium (>0.1 m² and <1 m²)

Expand to show TLE details & history

TLE from 4 months ago
0 RESURS P1 DEB
1 60217U 13030F   24232.51963325  .14769424  21035-5  23595-2 0  9999
2 60217  96.9092 281.4807 0024247 245.4312 114.4458 16.32770253  8329
Epoch: 2024-08-19T12:28Z
Definitive object data (Epoch: 2024-08-19T12:28:16.312Z)
Latitude-0.00005°
Longitude126.06339°
Altitude194.981 km
Speed7.785 km/s
True Right ascension18h 45m 55s
True Declination0° 00' 00"
Sunlit
Object was in full shadow at TLE epoch
Visualization observer readout
Observer readout values are unavailable because the object's trajectory could not be propagated. This is usually caused when the trajectory data is faulty or the object's orbit has decayed.
Visualization observer readout
Observer readout values are unavailable because the object's trajectory could not be propagated. This is usually caused when the trajectory data is faulty or the object's orbit has decayed.
Orbital elements
Apogee altitude197.807 km
Perigee altitude165.995 km
Semi-major axis6,560.038 km
Eccentricity0.0024247
Inclination96.9092°
RAAN281.4807°
Arg. of periapsis245.4312°
True anomaly114.69842°
Mean anomaly114.4458°
Eccentric anomaly114.57214°
Mean motion4.08492 °/min
BSTAR0.0023595
Orbital period88.13 mins
Loading maneuver chart data...

RESURS P1 DEB Visibility forecast

Observer location: undefined°, undefined

This satellite is decayed
Span
Click to sort rows by Start time (UTC) header in descending order
Start Az.
Max El. time (UTC)
Max El. Az.
Max El.
End time (UTC)
End Az.
|